Location: Brno
(49.2000°N, 16.6330°E)
Time: 01:16:18
(UTC+02:00)

Vanguard 3 - Pass Details

Date: 09 August 2021
Orbit: 510 x 3260 km, 33.3° (Epoch: 19 September)

Event Time Altitude Azimuth Distance (km) Brightness Sun altitude
Rises 23:22:20 0° 271° (W) 6,570 12.1 -21.8°
Reaches altitude 10° 23:29:06 10° 254° (WSW) 5,917 11.6 -22.2°
Maximum altitude 23:38:37 16° 223° (SW) 5,625 11.1 -22.8°
Enters shadow 23:45:59 13° 199° (SSW) 5,925 11.1 -23.2°
Drops below altitude 10° 23:48:31 10° 192° (SSW) 6,119 - -23.4°
Sets 23:55:55 0° 175° (S) 6,885 - -23.7°
